This is the latest recevied weather packets stored in our database for station/object N9NDF. If no packets are shown the sender has not sent any weather packets the latest 10 day(s).
| Time | Temp. | Humidity | Pressure | Rain* | Wind** | Luminosity | Snow |
|---|---|---|---|---|---|---|---|
| 1777649703 | 11.11° C | 56% | 995.4 hPa | 0 mm | - | 493 W/m² | - |
| 1777649643 | 11.11° C | 57% | 995.4 hPa | 0 mm | - | 447 W/m² | - |
| 1777649584 | 11.11° C | 58% | 995.4 hPa | 0 mm | - | 310 W/m² | - |
| 1777649523 | 11.11° C | 57% | 995.3 hPa | 0 mm | - | 274 W/m² | - |
| 1777649462 | 11.11° C | 57% | 995.3 hPa | 0 mm | - | 232 W/m² | - |
| 1777649402 | 11.11° C | 56% | 995.3 hPa | 0 mm | - | 360 W/m² | - |
| 1777649343 | 10.56° C | 56% | 995.4 hPa | 0 mm | - | 338 W/m² | - |
| 1777649283 | 10.56° C | 60% | 995.4 hPa | 0 mm | - | 679 W/m² | - |
| 1777649222 | 10.56° C | 60% | 995.4 hPa | 0 mm | - | 912 W/m² | - |
| 1777649162 | 10.56° C | 61% | 995.4 hPa | 0 mm | - | 860 W/m² | - |
| 1777649102 | 10.56° C | 63% | 995.4 hPa | 0 mm | - | 818 W/m² | - |
| 1777649042 | 10.56° C | 63% | 995.4 hPa | 0 mm | - | 797 W/m² | - |
| 1777648982 | 10.56° C | 60% | 995.4 hPa | 0 mm | - | 772 W/m² | - |
| 1777648922 | 10.56° C | 61% | 995.3 hPa | 0 mm | - | 766 W/m² | - |
| 1777648862 | 10.56° C | 63% | 995.4 hPa | 0 mm | - | 755 W/m² | - |
| 1777648824 | 10.56° C | 64% | 995.4 hPa | 0 mm | - | 766 W/m² | - |
| 1777648742 | 10.56° C | 63% | 995.4 hPa | 0 mm | - | 640 W/m² | - |
| 1777648682 | 10.56° C | 62% | 995.4 hPa | 0 mm | - | 368 W/m² | - |
| 1777648622 | 10.56° C | 63% | 995.4 hPa | 0 mm | - | 222 W/m² | - |
| 1777648502 | 10.56° C | 64% | 995.4 hPa | 0 mm | - | 688 W/m² | - |
| 1777648442 | 10.56° C | 63% | 995.4 hPa | 0 mm | - | 827 W/m² | - |
| 1777648382 | 10.56° C | 63% | 995.4 hPa | 0 mm | - | 816 W/m² | - |
| 1777648323 | 10.56° C | 62% | 995.4 hPa | 0 mm | - | 716 W/m² | - |
| 1777648263 | 10.56° C | 63% | 995.4 hPa | 0 mm | - | 399 W/m² | - |
| 1777648203 | 10.56° C | 63% | 995.4 hPa | 0 mm | - | 171 W/m² | - |
* Rain latest hour (hover to see other rain measurements)
** Current wind speed in m/s (hover to see current wind gust speed)